When you browse on this site, cookies collect data to enhance your experience and personalize the content and advertising you see.
Visit our Privacy Policy to learn more. By continuing to use the site, you agree to this use of cookies and data.
EN

Hourly Weather Kalna

Today, 14 August, Friday

Time Temperature Precipitation Wind Pressure Humidity
00:00 +30°C° 0 mm 2 mps 748 mmHg 92%
01:00 +30°C° 0 mm 2 mps 748 mmHg 92%
02:00 +29°C° 0 mm 2 mps 747 mmHg 92%
03:00 +29°C° 0 mm 2 mps 746 mmHg 92%
04:00 +29°C° 0 mm 2 mps 747 mmHg 93%
05:00 +29°C° 0 mm 2 mps 747 mmHg 93%
06:00 +29°C° 0 mm 1 mps 747 mmHg 95%
07:00 +30°C° 0 mm 2 mps 747 mmHg 88%
08:00 +33°C° 0 mm 3 mps 747 mmHg 81%
09:00 +34°C° 0 mm 3 mps 747 mmHg 75%
10:00 +35°C° 0.1 mm 4 mps 747 mmHg 71%
11:00 +36°C° 0.1 mm 4 mps 747 mmHg 67%
12:00 +37°C° 0.1 mm 4 mps 746 mmHg 64%
13:00 +36°C° 0.8 mm 4 mps 746 mmHg 64%
14:00 +36°C° 0.8 mm 5 mps 745 mmHg 65%
15:00 +36°C° 0.8 mm 5 mps 744 mmHg 66%
16:00 +35°C° 2.8 mm 5 mps 744 mmHg 71%
17:00 +35°C° 2.8 mm 5 mps 744 mmHg 75%
18:00 +34°C° 2.8 mm 4 mps 744 mmHg 79%
19:00 +33°C° 0.2 mm 4 mps 745 mmHg 81%
20:00 +32°C° 0.2 mm 4 mps 745 mmHg 84%
21:00 +31°C° 0.2 mm 3 mps 746 mmHg 87%
22:00 +30°C° 0 mm 3 mps 746 mmHg 88%
23:00 +30°C° 0 mm 3 mps 746 mmHg 89%

Tomorrow, 15 August, Saturday

Time Temperature Precipitation Wind Pressure Humidity
00:00 +30°C° 0 mm 2 mps 746 mmHg 90%
01:00 +29°C° 0 mm 2 mps 745 mmHg 91%
02:00 +29°C° 0 mm 2 mps 745 mmHg 92%
03:00 +29°C° 0 mm 2 mps 744 mmHg 93%
04:00 +29°C° 0.5 mm 3 mps 744 mmHg 92%
05:00 +29°C° 0.5 mm 3 mps 745 mmHg 92%
06:00 +29°C° 0.5 mm 3 mps 745 mmHg 91%
07:00 +30°C° 0.1 mm 4 mps 745 mmHg 87%
08:00 +32°C° 0.1 mm 4 mps 745 mmHg 84%
09:00 +33°C° 0.1 mm 5 mps 746 mmHg 80%
10:00 +33°C° 0.6 mm 5 mps 745 mmHg 77%
11:00 +34°C° 0.6 mm 5 mps 745 mmHg 74%
12:00 +35°C° 0.6 mm 5 mps 745 mmHg 71%
13:00 +35°C° 0.8 mm 5 mps 744 mmHg 71%
14:00 +35°C° 0.8 mm 5 mps 744 mmHg 71%
15:00 +35°C° 0.8 mm 5 mps 743 mmHg 70%
16:00 +35°C° 0.9 mm 4 mps 743 mmHg 74%
17:00 +34°C° 0.9 mm 4 mps 743 mmHg 77%
18:00 +33°C° 0.9 mm 4 mps 743 mmHg 81%
19:00 +32°C° 1.5 mm 4 mps 744 mmHg 84%
20:00 +32°C° 1.5 mm 4 mps 745 mmHg 86%
21:00 +30°C° 1.5 mm 5 mps 746 mmHg 89%
22:00 +30°C° 0.5 mm 4 mps 746 mmHg 89%
23:00 +29°C° 0.5 mm 4 mps 746 mmHg 90%

Day after tomorrow, 16 August, Sunday

Time Temperature Precipitation Wind Pressure Humidity
00:00 +29°C° 0.5 mm 4 mps 746 mmHg 90%
01:00 +29°C° 0 mm 4 mps 746 mmHg 90%
02:00 +29°C° 0 mm 4 mps 745 mmHg 91%
03:00 +28°C° 0 mm 4 mps 745 mmHg 91%
04:00 +28°C° 0 mm 4 mps 745 mmHg 91%
05:00 +28°C° 0 mm 4 mps 746 mmHg 91%
06:00 +28°C° 0 mm 4 mps 746 mmHg 91%
07:00 +29°C° 0.1 mm 4 mps 746 mmHg 89%
08:00 +29°C° 0.1 mm 4 mps 747 mmHg 87%
09:00 +30°C° 0.1 mm 4 mps 747 mmHg 85%
10:00 +30°C° 0.2 mm 4 mps 747 mmHg 82%
11:00 +32°C° 0.2 mm 4 mps 746 mmHg 80%
12:00 +33°C° 0.2 mm 4 mps 746 mmHg 78%
13:00 +33°C° 0.7 mm 4 mps 745 mmHg 75%
14:00 +34°C° 0.7 mm 4 mps 745 mmHg 73%
15:00 +35°C° 0.7 mm 5 mps 744 mmHg 70%
16:00 +34°C° 1.1 mm 5 mps 744 mmHg 74%
17:00 +33°C° 1.1 mm 5 mps 745 mmHg 77%
18:00 +32°C° 1.1 mm 4 mps 745 mmHg 80%
19:00 +32°C° 0 mm 4 mps 746 mmHg 81%
20:00 +30°C° 0 mm 4 mps 746 mmHg 82%
21:00 +30°C° 0 mm 4 mps 747 mmHg 83%
22:00 +29°C° 0 mm 4 mps 747 mmHg 84%
23:00 +29°C° 0 mm 4 mps 748 mmHg 84%

17 August, Monday

Time Temperature Precipitation Wind Pressure Humidity
00:00 +29°C° 0 mm 3 mps 748 mmHg 85%
01:00 +29°C° 0 mm 3 mps 747 mmHg 86%
02:00 +28°C° 0 mm 2 mps 747 mmHg 87%
03:00 +28°C° 0 mm 2 mps 747 mmHg 88%
04:00 +28°C° 0 mm 2 mps 747 mmHg 88%
05:00 +28°C° 0 mm 2 mps 747 mmHg 88%
06:00 +28°C° 0 mm 2 mps 747 mmHg 89%
07:00 +29°C° 0 mm 2 mps 748 mmHg 84%
08:00 +30°C° 0 mm 2 mps 748 mmHg 78%
09:00 +31°C° 0 mm 3 mps 748 mmHg 73%
10:00 +33°C° 0 mm 3 mps 748 mmHg 69%
11:00 +34°C° 0 mm 3 mps 748 mmHg 65%
12:00 +36°C° 0 mm 3 mps 747 mmHg 61%
13:00 +36°C° 0.1 mm 3 mps 747 mmHg 60%
14:00 +36°C° 0.1 mm 4 mps 746 mmHg 60%
15:00 +36°C° 0.1 mm 4 mps 745 mmHg 60%
16:00 +35°C° 0.5 mm 4 mps 745 mmHg 65%
17:00 +34°C° 0.5 mm 4 mps 745 mmHg 70%
18:00 +33°C° 0.5 mm 4 mps 745 mmHg 76%
19:00 +32°C° 0.4 mm 4 mps 746 mmHg 78%
20:00 +32°C° 0.4 mm 4 mps 747 mmHg 80%
21:00 +30°C° 0.4 mm 3 mps 748 mmHg 82%
22:00 +30°C° 0.1 mm 3 mps 748 mmHg 84%
23:00 +29°C° 0.1 mm 3 mps 748 mmHg 85%

18 August, Tuesday

Time Temperature Precipitation Wind Pressure Humidity
00:00 +29°C° 0.1 mm 2 mps 748 mmHg 86%
01:00 +29°C° 0.3 mm 2 mps 748 mmHg 87%
02:00 +29°C° 0.3 mm 1 mps 748 mmHg 87%
03:00 +29°C° 0.3 mm 1 mps 747 mmHg 88%
04:00 +29°C° 0.1 mm 1 mps 747 mmHg 88%
05:00 +29°C° 0.1 mm 1 mps 748 mmHg 88%
06:00 +27°C° 0.1 mm 0 mps 748 mmHg 88%
07:00 +30°C° 0 mm 1 mps 748 mmHg 83%
08:00 +31°C° 0 mm 1 mps 748 mmHg 77%
09:00 +32°C° 0 mm 2 mps 749 mmHg 71%
10:00 +34°C° 1.1 mm 2 mps 748 mmHg 70%
11:00 +34°C° 1.1 mm 2 mps 748 mmHg 68%
12:00 +35°C° 1.1 mm 2 mps 748 mmHg 66%
13:00 +35°C° 1.3 mm 2 mps 747 mmHg 66%
14:00 +35°C° 1.3 mm 2 mps 746 mmHg 65%
15:00 +35°C° 1.3 mm 2 mps 746 mmHg 65%
16:00 +34°C° 1 mm 3 mps 746 mmHg 72%
17:00 +32°C° 1 mm 4 mps 746 mmHg 79%
18:00 +30°C° 1 mm 4 mps 746 mmHg 86%
19:00 +30°C° 0.1 mm 4 mps 746 mmHg 87%
20:00 +29°C° 0.1 mm 3 mps 747 mmHg 87%
21:00 +29°C° 0.1 mm 3 mps 748 mmHg 88%
22:00 +29°C° 0.1 mm 2 mps 748 mmHg 88%
23:00 +29°C° 0.1 mm 2 mps 748 mmHg 88%

19 August, Wednesday

Time Temperature Precipitation Wind Pressure Humidity
00:00 +29°C° 0.1 mm 1 mps 748 mmHg 89%
01:00 +29°C° 0.5 mm 1 mps 747 mmHg 89%
02:00 +29°C° 0.5 mm 1 mps 747 mmHg 89%
03:00 +29°C° 0.5 mm 1 mps 746 mmHg 89%
04:00 +29°C° 0.1 mm 1 mps 746 mmHg 89%
05:00 +29°C° 0.1 mm 1 mps 746 mmHg 90%
06:00 +28°C° 0.1 mm 2 mps 746 mmHg 90%
07:00 +30°C° 0.1 mm 2 mps 746 mmHg 85%
08:00 +31°C° 0.1 mm 3 mps 747 mmHg 81%
09:00 +33°C° 0.1 mm 3 mps 747 mmHg 76%
10:00 +34°C° 1 mm 4 mps 746 mmHg 74%
11:00 +34°C° 1 mm 4 mps 746 mmHg 73%
12:00 +35°C° 1 mm 5 mps 745 mmHg 71%
13:00 +35°C° 1.2 mm 5 mps 745 mmHg 71%
14:00 +34°C° 1.2 mm 5 mps 744 mmHg 72%
15:00 +34°C° 1.2 mm 5 mps 743 mmHg 72%
16:00 +33°C° 1 mm 5 mps 743 mmHg 76%
17:00 +33°C° 1 mm 4 mps 743 mmHg 80%
18:00 +32°C° 1 mm 4 mps 743 mmHg 84%
19:00 +30°C° 1.7 mm 4 mps 744 mmHg 86%
20:00 +30°C° 1.7 mm 4 mps 744 mmHg 88%
21:00 +29°C° 1.7 mm 4 mps 744 mmHg 89%
22:00 +29°C° 1.1 mm 4 mps 744 mmHg 90%
23:00 +29°C° 1.1 mm 4 mps 744 mmHg 91%
Show more